This demonstration page uses our WeatherBlox Daily Observations layout. Learn more.

Left ArrowRight Arrow

39.51506, -84.39828

Hourly Observations for August 31, 2016

Temp ( °F °C ) Dew Point ( °F °C ) Humidity (%) Winds ( mph kmh ) Pressure ( in mb ) Visibility ( mi km ) Precip ( " mm )
12:15 am 00:15 Clear 74 23.6 66 18.8 75 75 N 6 9 30.06 1018 10 16 N/A
12:35 am 00:35 Clear 74 23.6 66 19 75 75 N 5 7 30.06 1018 10 16 N/A
12:55 am 00:55 Clear 74 23.6 66 19 75 75 N N/A 30.06 1018 10 16 N/A
1:15 am 01:15 Clear 74 23.6 67 19.4 77 77 N N/A 30.03 1017 10 16 N/A
1:35 am 01:35 Clear 74 23.6 67 19.5 78 78 N N/A 30.03 1017 10 16 N/A
1:55 am 01:55 Clear 74 23.6 68 19.9 80 80 N N/A 30.03 1017 10 16 N/A
2:15 am 02:15 Clear 74 23.6 68 20.1 81 81 N N/A 30.03 1017 10 16 N/A
2:35 am 02:35 Clear 74 23.6 68 20.2 81 81 N N/A 30.00 1016 10 16 N/A
2:55 am 02:55 Clear 74 23.6 69 20.5 83 83 WSW 3 6 30.00 1016 10 16 N/A
3:15 am 03:15 Clear 72 22.3 67 19.2 83 83 W 3 6 30.00 1016 10 16 N/A
3:35 am 03:35 Partly Cloudy 74 23.6 69 20.3 82 82 N N/A 30.00 1016 10 16 N/A
3:55 am 03:55 Clear 72 22.3 66 19 82 82 N N/A 30.00 1016 10 16 N/A
4:15 am 04:15 Clear 72 22.3 66 19 82 82 N N/A 30.00 1016 10 16 N/A
4:35 am 04:35 Clear 73 22.5 66 19.1 81 81 N N/A 30.00 1016 10 16 N/A
4:55 am 04:55 Clear 72 22.3 66 18.9 81 81 N N/A 30.00 1016 10 16 N/A
5:15 am 05:15 Clear 69 20.8 64 17.7 83 83 N N/A 30.00 1016 10 16 N/A
5:35 am 05:35 Clear 69 20.8 64 17.8 83 83 N N/A 30.00 1016 10 16 N/A
5:55 am 05:55 Clear 69 20.8 64 17.8 83 83 N 3 6 30.00 1016 10 16 N/A
6:15 am 06:15 Clear 69 20.8 64 18 84 84 N N/A 30.00 1016 10 16 N/A
6:35 am 06:35 Partly Cloudy 69 20.8 64 18 84 84 N N/A 30.00 1016 10 16 N/A
6:55 am 06:55 Mostly Cloudy 69 20.8 64 18 84 84 N N/A 30.00 1016 10 16 N/A
7:15 am 07:15 Mostly Cloudy 69 20.8 64 17.8 83 83 N N/A 30.00 1016 10 16 N/A
7:35 am 07:35 Partly Cloudy 69 20.8 64 17.8 83 83 N N/A 30.00 1016 10 16 N/A
7:55 am 07:55 Mostly Cloudy 71 21.6 65 18.6 83 83 N N/A 30.03 1017 10 16 N/A
8:15 am 08:15 Partly Cloudy 72 22.2 66 19.1 83 83 N N/A 30.03 1017 10 16 N/A
8:35 am 08:35 Sunny 74 23.6 68 20.2 81 81 N N/A 30.03 1017 10 16 N/A
8:55 am 08:55 Sunny 74 23.6 67 19.6 78 78 N N/A 30.00 1016 10 16 N/A
9:15 am 09:15 Sunny 74 23.6 67 19.5 78 78 N N/A 30.00 1016 10 16 N/A
9:35 am 09:35 Sunny 77 25.1 69 20.3 75 75 N N/A 30.00 1016 10 16 N/A
9:55 am 09:55 Sunny 77 25.1 68 20 73 73 N N/A 30.00 1016 10 16 N/A
10:15 am 10:15 Partly Cloudy 79 26 68 20.2 70 70 N N/A 30.00 1016 10 16 N/A
10:35 am 10:35 Partly Cloudy 80 26.5 68 19.8 67 67 N N/A 30.00 1016 10 16 N/A
10:55 am 10:55 Partly Cloudy 80 26.6 66 19 63 63 N N/A 30.00 1016 10 16 N/A
11:15 am 11:15 Partly Cloudy 82 27.5 67 19.2 61 61 W 5 7 30.00 1016 10 16 N/A
11:35 am 11:35 Partly Cloudy 82 28 67 19.4 60 60 W 3 6 30.00 1016 10 16 N/A
11:55 am 11:55 Partly Cloudy 83 28.2 67 19.6 60 60 SW 6 9 29.94 1014 10 16 N/A
12:15 pm 12:15 Partly Cloudy 82 28 65 18.6 57 57 W 3 6 29.94 1014 10 16 N/A
12:35 pm 12:35 Partly Cloudy 82 28 65 18.6 57 57 N N/A 29.94 1014 10 16 N/A
12:55 pm 12:55 Partly Cloudy 83 28.6 66 18.9 56 56 SW 5 7 29.94 1014 10 16 N/A
1:15 pm 13:15 Mostly Cloudy 84 28.7 65 18.5 54 54 N N/A 29.94 1014 10 16 N/A
1:35 pm 13:35 Mostly Cloudy 83 28.6 67 19.2 57 57 WSW 3 6 29.94 1014 10 16 N/A
1:55 pm 13:55 Partly Cloudy 85 29.3 66 18.9 54 54 N N/A 29.91 1013 10 16 N/A
2:15 pm 14:15 Mostly Cloudy 85 29.3 67 19.6 56 56 W 3 6 29.91 1013 10 16 N/A
2:35 pm 14:35 Mostly Cloudy 81 27 66 18.7 60 60 NNW 14 22 29.94 1014 10 16 N/A
2:55 pm 14:55 Cloudy with Light Rain 74 23.6 67 19.6 78 78 E 3 6 29.94 1014 7 11 N/A
3:15 pm 15:15 Mostly Cloudy with Light Rain 77 25.1 69 20.6 76 76 N N/A 29.94 1014 7 11 N/A
3:35 pm 15:35 Partly Cloudy 80 26.5 69 20.6 70 70 N N/A 29.94 1014 10 16 N/A
3:55 pm 15:55 Partly Cloudy 80 26.6 69 20.8 71 71 NNE 6 9 29.94 1014 10 16 N/A
4:15 pm 16:15 Mostly Cloudy 80 26.4 68 19.8 67 67 NNE 9 15 29.94 1014 10 16 N/A
4:35 pm 16:35 Cloudy 74 23.6 67 19.6 78 78 ENE 3 6 29.94 1014 7 11 N/A
4:55 pm 16:55 Cloudy with Light Rain 75 23.9 68 20 79 79 N N/A 29.94 1014 10 16 N/A
5:15 pm 17:15 Cloudy with Rain 77 25.1 68 19.9 73 73 WSW 5 7 29.94 1014 10 16 N/A
5:35 pm 17:35 Cloudy with Light Rain 74 23.6 67 19.5 78 78 SSW 5 7 29.94 1014 10 16 N/A
5:55 pm 17:55 Cloudy with Rain 74 23.6 68 20.2 81 81 NW 7 11 29.94 1014 5 8 N/A
6:15 pm 18:15 Cloudy with Rain 74 23.6 68 20 80 80 WNW 7 11 29.94 1014 5 8 N/A
6:35 pm 18:35 Cloudy with Light Rain 74 23.6 69 20.3 82 82 S 8 13 29.94 1014 5 8 N/A
6:55 pm 18:55 Cloudy with Light Rain 74 23.6 68 20.2 81 81 WSW 6 9 29.94 1014 7 11 N/A
7:15 pm 19:15 Mostly Cloudy with Light Rain 74 23.6 68 20 80 80 N N/A 29.91 1013 10 16 N/A
7:35 pm 19:35 Partly Cloudy 74 23.6 68 20 80 80 N N/A 29.91 1013 10 16 N/A
8:15 pm 20:15 Clear 74 23.6 69 20.4 82 82 N N/A 29.94 1014 10 16 N/A
8:35 pm 20:35 Clear 74 23.6 69 20.5 83 83 N N/A 29.94 1014 10 16 N/A
8:55 pm 20:55 Hazy 74 23.6 70 20.9 85 85 N N/A 29.94 1014 3 5 N/A
9:15 pm 21:15 Hazy 74 23.6 70 21 85 85 N N/A 29.94 1014 3 4 N/A
9:35 pm 21:35 Hazy 74 23.6 70 21 85 85 N N/A 29.94 1014 5 8 N/A
9:55 pm 21:55 Hazy 73 22.9 68 20.2 85 85 N N/A 29.97 1015 5 8 N/A
10:15 pm 22:15 Clear with Mist and Fog 72 22.4 67 19.7 85 85 N N/A 29.97 1015 3 4 N/A
10:35 pm 22:35 Hazy 74 23.1 69 20.4 85 85 N N/A 29.97 1015 1 2 N/A
10:55 pm 22:55 Hazy 71 21.5 66 18.8 85 85 N N/A 29.94 1014 4 6 N/A
11:15 pm 23:15 Clear 71 21.4 66 18.8 85 85 N N/A 29.94 1014 7 11 N/A
11:35 pm 23:35 Clear 72 22.3 67 19.6 85 85 NNE 3 6 29.97 1015 7 11 N/A
11:55 pm 23:55 Clear 74 23.6 70 21 85 85 N 3 6 29.97 1015 7 11 N/A

Powered by AerisWeather